STARLINK-3540, 51719

Orbit data source: Space-Track

STARLINK-3540, 51719 is a payload satellite owned by SpaceX/Seattle (US) in LEO that was launched on Mon, 21 Feb 2022 UTC via an FALCON 9 launch vehicle from the Air Force Eastern Test Range (AFETR). Payload-class satellites include a variety of spacecraft equipped with specific instruments for various scientific and technological missions. These include communications satellites like Starlink; space stations such as the ISS; scientific satellites like the Hubble; Earth observation satellites from companies like Planet Labs, Umbra, and HawkEye 360; GPS; miniature CubeSats for education and research; and military/defense satellites.

Loading next visibility...
Identifier
51719, 2022-016F
Orbit
LEO
Country
Flag of USUS
Related business
Manufacturer
SpaceX/Seattle
Mission
Operational Commercial Communications
Bus & Motor
STARLINK, Unknown motor
Mass
297 kg wet, ~275 kg dry
Launch date (UTC)
2022-02-21 (4 years ago)
Launch vehicle
FALCON 9
Launch site
Air Force Eastern Test Range (AFETR)
Object type
Payload
Rocket body
Debris
Shape & HBR
Box + 1 Pan, 10.1 m
Radar Cross Section
13.562 m², Large (>1 m²)

Expand to show TLE details & history
Last TLE update: 2 days ago

TLE from 2 days ago
0 STARLINK-3540
1 51719U 22016F   26171.41165080 -.00000154  00000-0  83964-5 0  9992
2 51719  53.1596 227.9452 0001173  89.6047 270.5078 15.08831547238937
Epoch: 2026-06-20T09:52Z
TLE epoch observation values (Epoch: 2026-06-20T09:52:46.629Z)
Latitude
-0.00007°
Longitude
171.12421°
Altitude
540.653 km
Speed
7.593 km/s
True Right ascension
15h 11m 46s
True Declination
0° 00' 00"
Sunlit
Object was in full shadow at epoch
Visualization orbit readout
Latitude
Unknown
Longitude
Unknown
Altitude
Unknown
Speed
Unknown
Apparent Right ascension
Unknown
Apparent Declination
Unknown
Sunlit
N/A
Visualization observer readout
Local Sidereal Time
21:31:46
Azimuth
Unknown
Elevation
Unknown
Doppler factor
Unknown
Orbital elements
Apogee altitude
540.835 km
Perigee altitude
539.212 km
Semi-major axis
6,918.16 km
Eccentricity
0.00012
Inclination
53.1596°
RAAN
227.9452°
Arg. of periapsis
89.6047°
True anomaly
270.49436°
Mean anomaly
270.5078°
Eccentric anomaly
270.50108°
Mean motion
3.77187 °/min
Orbital period
95.44 mins
BSTAR
0.0000083964
Loading maneuver chart data...
Computing Atmospheric mass density...
Loading historical data...
Loading historical data...
Loading historical data...
Loading historical data...
Loading historical data...
Loading historical data...
Loading historical data...

Documentation

Showing up to 5 results
|